Location: Laan Hart van Zuid
(52.2563°N, 6.7904°E)
Time: 10:12:35
(UTC+02:00)

ISS - Pass Details

Date: 22 May 2024
Orbit: 411 x 419 km, 51.6° (Epoch: 29 May)

Event Time Altitude Azimuth Distance (km) Brightness Sun altitude
Rises 23:15:04 0° 282° (WNW) 2,371 0.8 -11.5°
Reaches altitude 10° 23:17:20 10° 271° (W) 1,503 -0.5 -11.6°
Maximum altitude 23:20:17 28° 210° (SSW) 815 -2.6 -11.9°
Enters shadow 23:21:48 20° 167° (SSE) 1,040 -2.4 -12.0°
